This is the latest recevied weather packets stored in our database for station/object CE3TL-WX. If no packets are shown the sender has not sent any weather packets the latest 10 day(s).
| Time | Temp. | Humidity | Pressure | Rain* | Wind** | Luminosity | Snow |
|---|---|---|---|---|---|---|---|
| 1777943806 | 14.44° C | 47% | 1022.4 hPa | - | - | - | - |
| 1777943273 | 14.44° C | 47% | 1022.4 hPa | - | - | - | - |
| 1777942739 | 14.44° C | 48% | 1022.5 hPa | - | - | - | - |
| 1777942202 | 14.44° C | 46% | 1022.4 hPa | - | - | - | - |
| 1777941666 | 15° C | 47% | 1022.5 hPa | - | - | - | - |
| 1777941133 | 15° C | 46% | 1022.5 hPa | - | - | - | - |
| 1777940598 | 15° C | 46% | 1022.4 hPa | - | - | - | - |
| 1777940065 | 15° C | 45% | 1022.5 hPa | - | - | - | - |
| 1777939531 | 15.56° C | 45% | 1022.4 hPa | - | - | - | - |
| 1777938997 | 15.56° C | 45% | 1022.5 hPa | - | - | - | - |
| 1777938464 | 15.56° C | 45% | 1022.2 hPa | - | - | - | - |
| 1777937929 | 15.56° C | 46% | 1022.1 hPa | - | - | - | - |
| 1777937395 | 15.56° C | 45% | 1022.1 hPa | - | - | - | - |
| 1777936861 | 15.56° C | 45% | 1022.2 hPa | - | - | - | - |
| 1777936326 | 16.11° C | 44% | 1022.4 hPa | - | - | - | - |
| 1777935793 | 16.11° C | 44% | 1022.4 hPa | - | - | - | - |
| 1777935258 | 16.67° C | 43% | 1022.1 hPa | - | - | - | - |
| 1777934723 | 16.67° C | 42% | 1022.2 hPa | - | - | - | - |
| 1777934189 | 17.22° C | 41% | 1022 hPa | - | - | - | - |
| 1777933655 | 17.22° C | 40% | 1022 hPa | - | - | - | - |
| 1777933122 | 17.78° C | 39% | 1021.9 hPa | - | - | - | - |
| 1777932588 | 18.33° C | 38% | 1021.6 hPa | - | - | - | - |
| 1777932053 | 18.33° C | 36% | 1021.4 hPa | - | - | - | - |
| 1777931520 | 18.89° C | 34% | 1021.3 hPa | - | - | - | - |
| 1777930987 | 19.44° C | 34% | 1021.4 hPa | - | - | - | - |
* Rain since midnight (hover to see other rain measurements)
** Current wind speed in m/s (hover to see current wind gust speed)